owner,sensor,date,latitude,longitude,air_pressure(mBar),qcFlag 
COMPS,ioos:station:USF.COMPS:C12:1,2016-05-01T00:05:00Z,27.4980,-83.7220,1010.6,1111122 
COMPS,ioos:station:USF.COMPS:C12:1,2016-05-01T00:35:00Z,27.4980,-83.7220,1010.66,1111122 
COMPS,ioos:station:USF.COMPS:C12:1,2016-05-01T01:05:00Z,27.4980,-83.7220,1011.03,1111122 
COMPS,ioos:station:USF.COMPS:C12:1,2016-05-01T01:35:00Z,27.4980,-83.7220,1011.43,1111122 
COMPS,ioos:station:USF.COMPS:C12:1,2016-05-01T02:05:00Z,27.4980,-83.7220,1012.02,1111122 
COMPS,ioos:station:USF.COMPS:C12:1,2016-05-01T02:35:00Z,27.4980,-83.7220,1012.44,1111122 
COMPS,ioos:station:USF.COMPS:C12:1,2016-05-01T03:05:00Z,27.4980,-83.7220,1012.79,1111122 
COMPS,ioos:station:USF.COMPS:C12:1,2016-05-01T03:35:00Z,27.4980,-83.7220,1012.83,1111122 
COMPS,ioos:station:USF.COMPS:C12:1,2016-05-01T04:05:00Z,27.4980,-83.7220,1012.83,1111122 
COMPS,ioos:station:USF.COMPS:C12:1,2016-05-01T04:35:00Z,27.4980,-83.7220,1012.84,1111122 
COMPS,ioos:station:USF.COMPS:C12:1,2016-05-01T05:05:00Z,27.4980,-83.7220,1012.62,1111122 
COMPS,ioos:station:USF.COMPS:C12:1,2016-05-01T05:35:00Z,27.4980,-83.7220,1012.85,1111122 
COMPS,ioos:station:USF.COMPS:C12:1,2016-05-01T06:05:00Z,27.4980,-83.7220,1012.86,1111122 
COMPS,ioos:station:USF.COMPS:C12:1,2016-05-01T06:35:00Z,27.4980,-83.7220,1012.63,1111122 
COMPS,ioos:station:USF.COMPS:C12:1,2016-05-01T07:05:00Z,27.4980,-83.7220,1012.25,1111122 
COMPS,ioos:station:USF.COMPS:C12:1,2016-05-01T07:35:00Z,27.4980,-83.7220,1012.08,1111122 
COMPS,ioos:station:USF.COMPS:C12:1,2016-05-01T08:05:00Z,27.4980,-83.7220,1012.26,1111122 
COMPS,ioos:station:USF.COMPS:C12:1,2016-05-01T08:35:00Z,27.4980,-83.7220,1011.98,1111122 
COMPS,ioos:station:USF.COMPS:C12:1,2016-05-01T09:05:00Z,27.4980,-83.7220,1011.86,1111122 
COMPS,ioos:station:USF.COMPS:C12:1,2016-05-01T09:35:00Z,27.4980,-83.7220,1012.12,1111122 
COMPS,ioos:station:USF.COMPS:C12:1,2016-05-01T10:05:00Z,27.4980,-83.7220,1012.32,1111122 
COMPS,ioos:station:USF.COMPS:C12:1,2016-05-01T10:35:00Z,27.4980,-83.7220,1012.29,1111122 
COMPS,ioos:station:USF.COMPS:C12:1,2016-05-01T11:05:00Z,27.4980,-83.7220,1012.63,1111122 
COMPS,ioos:station:USF.COMPS:C12:1,2016-05-01T11:35:00Z,27.4980,-83.7220,1012.99,1111122 
COMPS,ioos:station:USF.COMPS:C12:1,2016-05-01T12:05:00Z,27.4980,-83.7220,1012.85,1111122 
COMPS,ioos:station:USF.COMPS:C12:1,2016-05-01T12:35:00Z,27.4980,-83.7220,1013.04,1111122 
COMPS,ioos:station:USF.COMPS:C12:1,2016-05-01T13:05:00Z,27.4980,-83.7220,1013.43,1111122 
COMPS,ioos:station:USF.COMPS:C12:1,2016-05-01T13:35:00Z,27.4980,-83.7220,1013.97,1111122 
COMPS,ioos:station:USF.COMPS:C12:1,2016-05-01T14:05:00Z,27.4980,-83.7220,1013.85,1111122 
COMPS,ioos:station:USF.COMPS:C12:1,2016-05-01T14:35:00Z,27.4980,-83.7220,1014.19,1111122 
COMPS,ioos:station:USF.COMPS:C12:1,2016-05-01T15:05:00Z,27.4980,-83.7220,1014.41,1111122 
COMPS,ioos:station:USF.COMPS:C12:1,2016-05-01T15:35:00Z,27.4980,-83.7220,1014.52,1111122 
COMPS,ioos:station:USF.COMPS:C12:1,2016-05-01T16:05:00Z,27.4980,-83.7220,1014.53,1111122 
COMPS,ioos:station:USF.COMPS:C12:1,2016-05-01T16:35:00Z,27.4980,-83.7220,1014.28,1111122 
COMPS,ioos:station:USF.COMPS:C12:1,2016-05-01T17:05:00Z,27.4980,-83.7220,1014.22,1111122 
COMPS,ioos:station:USF.COMPS:C12:1,2016-05-01T17:35:00Z,27.4980,-83.7220,1014.19,1111122 
COMPS,ioos:station:USF.COMPS:C12:1,2016-05-01T18:05:00Z,27.4980,-83.7220,1013.84,1111122 
COMPS,ioos:station:USF.COMPS:C12:1,2016-05-01T18:35:00Z,27.4980,-83.7220,1013.7,1111122 
COMPS,ioos:station:USF.COMPS:C12:1,2016-05-01T19:05:00Z,27.4980,-83.7220,1013.58,1111122 
COMPS,ioos:station:USF.COMPS:C12:1,2016-05-01T19:35:00Z,27.4980,-83.7220,1013.08,1111122 
COMPS,ioos:station:USF.COMPS:C12:1,2016-05-01T20:05:00Z,27.4980,-83.7220,1012.82,1111122 
COMPS,ioos:station:USF.COMPS:C12:1,2016-05-01T20:35:00Z,27.4980,-83.7220,1012.54,1111122 
COMPS,ioos:station:USF.COMPS:C12:1,2016-05-01T21:05:00Z,27.4980,-83.7220,1012.4,1111122 
COMPS,ioos:station:USF.COMPS:C12:1,2016-05-01T21:35:00Z,27.4980,-83.7220,1012.35,1111122 
COMPS,ioos:station:USF.COMPS:C12:1,2016-05-01T22:05:00Z,27.4980,-83.7220,1012.27,1111122 
COMPS,ioos:station:USF.COMPS:C12:1,2016-05-01T22:35:00Z,27.4980,-83.7220,1012.56,1111122 
COMPS,ioos:station:USF.COMPS:C12:1,2016-05-01T23:05:00Z,27.4980,-83.7220,1012.38,1111122 
COMPS,ioos:station:USF.COMPS:C12:1,2016-05-01T23:35:00Z,27.4980,-83.7220,1012.51,1111122 
COMPS,ioos:station:USF.COMPS:C12:1,2016-05-02T00:05:00Z,27.4980,-83.7220,1012.36,1111122 
COMPS,ioos:station:USF.COMPS:C12:1,2016-05-02T00:35:00Z,27.4980,-83.7220,1012.52,1111122 
COMPS,ioos:station:USF.COMPS:C12:1,2016-05-02T01:05:00Z,27.4980,-83.7220,1012.87,1111122 
COMPS,ioos:station:USF.COMPS:C12:1,2016-05-02T01:35:00Z,27.4980,-83.7220,1013.48,1111122 
COMPS,ioos:station:USF.COMPS:C12:1,2016-05-02T02:05:00Z,27.4980,-83.7220,1013.75,1111122 
COMPS,ioos:station:USF.COMPS:C12:1,2016-05-02T02:35:00Z,27.4980,-83.7220,1014.04,1111122 
COMPS,ioos:station:USF.COMPS:C12:1,2016-05-02T03:05:00Z,27.4980,-83.7220,1014.05,1111122 
COMPS,ioos:station:USF.COMPS:C12:1,2016-05-02T03:35:00Z,27.4980,-83.7220,1013.98,1111122 
COMPS,ioos:station:USF.COMPS:C12:1,2016-05-02T04:05:00Z,27.4980,-83.7220,1013.86,1111122 
COMPS,ioos:station:USF.COMPS:C12:1,2016-05-02T04:35:00Z,27.4980,-83.7220,1013.85,1111122 
COMPS,ioos:station:USF.COMPS:C12:1,2016-05-02T05:05:00Z,27.4980,-83.7220,1013.93,1111122 
COMPS,ioos:station:USF.COMPS:C12:1,2016-05-02T05:35:00Z,27.4980,-83.7220,1013.54,1111122 
COMPS,ioos:station:USF.COMPS:C12:1,2016-05-02T06:05:00Z,27.4980,-83.7220,1013.54,1111122 
COMPS,ioos:station:USF.COMPS:C12:1,2016-05-02T06:35:00Z,27.4980,-83.7220,1013.23,1111122 
COMPS,ioos:station:USF.COMPS:C12:1,2016-05-02T07:05:00Z,27.4980,-83.7220,1012.84,1111122 
COMPS,ioos:station:USF.COMPS:C12:1,2016-05-02T07:35:00Z,27.4980,-83.7220,1012.76,1111122 
COMPS,ioos:station:USF.COMPS:C12:1,2016-05-02T08:05:00Z,27.4980,-83.7220,1012.69,1111122 
COMPS,ioos:station:USF.COMPS:C12:1,2016-05-02T08:35:00Z,27.4980,-83.7220,1012.57,1111122 
COMPS,ioos:station:USF.COMPS:C12:1,2016-05-02T09:05:00Z,27.4980,-83.7220,1012.43,1111122 
COMPS,ioos:station:USF.COMPS:C12:1,2016-05-02T09:35:00Z,27.4980,-83.7220,1012.46,1111122 
COMPS,ioos:station:USF.COMPS:C12:1,2016-05-02T10:05:00Z,27.4980,-83.7220,1012.66,1111122 
COMPS,ioos:station:USF.COMPS:C12:1,2016-05-02T10:35:00Z,27.4980,-83.7220,1012.84,1111122 
COMPS,ioos:station:USF.COMPS:C12:1,2016-05-02T11:05:00Z,27.4980,-83.7220,1012.88,1111122 
COMPS,ioos:station:USF.COMPS:C12:1,2016-05-02T11:35:00Z,27.4980,-83.7220,1013.38,1111122 
COMPS,ioos:station:USF.COMPS:C12:1,2016-05-02T12:05:00Z,27.4980,-83.7220,1013.57,1111122 
COMPS,ioos:station:USF.COMPS:C12:1,2016-05-02T12:35:00Z,27.4980,-83.7220,1013.89,1111122 
COMPS,ioos:station:USF.COMPS:C12:1,2016-05-02T13:05:00Z,27.4980,-83.7220,1014.04,1111122 
COMPS,ioos:station:USF.COMPS:C12:1,2016-05-02T13:35:00Z,27.4980,-83.7220,1014.01,1111122 
COMPS,ioos:station:USF.COMPS:C12:1,2016-05-02T14:05:00Z,27.4980,-83.7220,1014.08,1111122 
COMPS,ioos:station:USF.COMPS:C12:1,2016-05-02T14:35:00Z,27.4980,-83.7220,1014.09,1111122 
COMPS,ioos:station:USF.COMPS:C12:1,2016-05-02T15:05:00Z,27.4980,-83.7220,1014.3,1111122 
COMPS,ioos:station:USF.COMPS:C12:1,2016-05-02T15:35:00Z,27.4980,-83.7220,1014.21,1111122 
COMPS,ioos:station:USF.COMPS:C12:1,2016-05-02T16:05:00Z,27.4980,-83.7220,1014.42,1111122 
COMPS,ioos:station:USF.COMPS:C12:1,2016-05-02T16:35:00Z,27.4980,-83.7220,1014.22,1111122 
COMPS,ioos:station:USF.COMPS:C12:1,2016-05-02T17:05:00Z,27.4980,-83.7220,1014.28,1111122 
COMPS,ioos:station:USF.COMPS:C12:1,2016-05-02T17:35:00Z,27.4980,-83.7220,1014.21,1111122 
COMPS,ioos:station:USF.COMPS:C12:1,2016-05-02T18:05:00Z,27.4980,-83.7220,1013.97,1111122 
COMPS,ioos:station:USF.COMPS:C12:1,2016-05-02T18:35:00Z,27.4980,-83.7220,1013.76,1111122 
COMPS,ioos:station:USF.COMPS:C12:1,2016-05-02T19:05:00Z,27.4980,-83.7220,1013.52,1111122 
COMPS,ioos:station:USF.COMPS:C12:1,2016-05-02T19:35:00Z,27.4980,-83.7220,1013.19,1111122 
COMPS,ioos:station:USF.COMPS:C12:1,2016-05-02T20:05:00Z,27.4980,-83.7220,1012.75,1111122 
COMPS,ioos:station:USF.COMPS:C12:1,2016-05-02T20:35:00Z,27.4980,-83.7220,1012.46,1111122 
COMPS,ioos:station:USF.COMPS:C12:1,2016-05-02T21:05:00Z,27.4980,-83.7220,1012.3,1111122 
COMPS,ioos:station:USF.COMPS:C12:1,2016-05-02T21:35:00Z,27.4980,-83.7220,1012.29,1111122 
COMPS,ioos:station:USF.COMPS:C12:1,2016-05-02T22:05:00Z,27.4980,-83.7220,1012.02,1111122 
COMPS,ioos:station:USF.COMPS:C12:1,2016-05-02T22:35:00Z,27.4980,-83.7220,1012.41,1111122 
COMPS,ioos:station:USF.COMPS:C12:1,2016-05-02T23:05:00Z,27.4980,-83.7220,1012.27,1111122 
COMPS,ioos:station:USF.COMPS:C12:1,2016-05-02T23:35:00Z,27.4980,-83.7220,1011.81,1111122 
COMPS,ioos:station:USF.COMPS:C12:1,2016-05-03T00:05:00Z,27.4980,-83.7220,1011.95,1111122 
COMPS,ioos:station:USF.COMPS:C12:1,2016-05-03T00:35:00Z,27.4980,-83.7220,1012.09,1111122 
COMPS,ioos:station:USF.COMPS:C12:1,2016-05-03T01:05:00Z,27.4980,-83.7220,1012.33,1111122 
COMPS,ioos:station:USF.COMPS:C12:1,2016-05-03T01:35:00Z,27.4980,-83.7220,1012.59,1111122 
COMPS,ioos:station:USF.COMPS:C12:1,2016-05-03T02:05:00Z,27.4980,-83.7220,1012.84,1111122 
COMPS,ioos:station:USF.COMPS:C12:1,2016-05-03T02:35:00Z,27.4980,-83.7220,1012.83,1111122 
COMPS,ioos:station:USF.COMPS:C12:1,2016-05-03T03:05:00Z,27.4980,-83.7220,1013.35,1111122 
COMPS,ioos:station:USF.COMPS:C12:1,2016-05-03T03:35:00Z,27.4980,-83.7220,1013.41,1111122 
COMPS,ioos:station:USF.COMPS:C12:1,2016-05-03T04:05:00Z,27.4980,-83.7220,1013.04,1111122 
COMPS,ioos:station:USF.COMPS:C12:1,2016-05-03T04:35:00Z,27.4980,-83.7220,1012.83,1111122 
COMPS,ioos:station:USF.COMPS:C12:1,2016-05-03T05:05:00Z,27.4980,-83.7220,1012.34,1111122 
COMPS,ioos:station:USF.COMPS:C12:1,2016-05-03T05:35:00Z,27.4980,-83.7220,1012.02,1111122 
COMPS,ioos:station:USF.COMPS:C12:1,2016-05-03T06:05:00Z,27.4980,-83.7220,1011.16,1111122 
COMPS,ioos:station:USF.COMPS:C12:1,2016-05-03T06:35:00Z,27.4980,-83.7220,1011.05,1111122 
COMPS,ioos:station:USF.COMPS:C12:1,2016-05-03T07:05:00Z,27.4980,-83.7220,1011.06,1111122 
COMPS,ioos:station:USF.COMPS:C12:1,2016-05-03T07:35:00Z,27.4980,-83.7220,1010.8,1111122 
COMPS,ioos:station:USF.COMPS:C12:1,2016-05-03T08:05:00Z,27.4980,-83.7220,1010.71,1111122 
COMPS,ioos:station:USF.COMPS:C12:1,2016-05-03T08:35:00Z,27.4980,-83.7220,1010.94,1111122 
COMPS,ioos:station:USF.COMPS:C12:1,2016-05-03T09:05:00Z,27.4980,-83.7220,1010.87,1111122 
COMPS,ioos:station:USF.COMPS:C12:1,2016-05-03T09:35:00Z,27.4980,-83.7220,1011.07,1111122 
COMPS,ioos:station:USF.COMPS:C12:1,2016-05-03T10:05:00Z,27.4980,-83.7220,1011.07,1111122 
COMPS,ioos:station:USF.COMPS:C12:1,2016-05-03T10:35:00Z,27.4980,-83.7220,1011.07,1111122 
COMPS,ioos:station:USF.COMPS:C12:1,2016-05-03T11:05:00Z,27.4980,-83.7220,1011.12,1111122 
COMPS,ioos:station:USF.COMPS:C12:1,2016-05-03T11:35:00Z,27.4980,-83.7220,1011.6,1111122 
COMPS,ioos:station:USF.COMPS:C12:1,2016-05-03T12:05:00Z,27.4980,-83.7220,1012.11,1111122 
COMPS,ioos:station:USF.COMPS:C12:1,2016-05-03T12:35:00Z,27.4980,-83.7220,1012.34,1111122 
COMPS,ioos:station:USF.COMPS:C12:1,2016-05-03T13:05:00Z,27.4980,-83.7220,1012.37,1111122 
COMPS,ioos:station:USF.COMPS:C12:1,2016-05-03T13:35:00Z,27.4980,-83.7220,1012.46,1111122 
COMPS,ioos:station:USF.COMPS:C12:1,2016-05-03T14:05:00Z,27.4980,-83.7220,1012.25,1111122 
COMPS,ioos:station:USF.COMPS:C12:1,2016-05-03T14:35:00Z,27.4980,-83.7220,1012.21,1111122 
COMPS,ioos:station:USF.COMPS:C12:1,2016-05-03T15:05:00Z,27.4980,-83.7220,1012.3,1111122 
COMPS,ioos:station:USF.COMPS:C12:1,2016-05-03T15:35:00Z,27.4980,-83.7220,1012.33,1111122 
COMPS,ioos:station:USF.COMPS:C12:1,2016-05-03T16:05:00Z,27.4980,-83.7220,1012.46,1111122 
COMPS,ioos:station:USF.COMPS:C12:1,2016-05-03T16:35:00Z,27.4980,-83.7220,1012.69,1111122 
COMPS,ioos:station:USF.COMPS:C12:1,2016-05-03T17:05:00Z,27.4980,-83.7220,1012.35,1111122 
COMPS,ioos:station:USF.COMPS:C12:1,2016-05-03T17:35:00Z,27.4980,-83.7220,1011.72,1111122 
COMPS,ioos:station:USF.COMPS:C12:1,2016-05-03T18:05:00Z,27.4980,-83.7220,1011.41,1111122 
COMPS,ioos:station:USF.COMPS:C12:1,2016-05-03T18:35:00Z,27.4980,-83.7220,1011.32,1111122 
COMPS,ioos:station:USF.COMPS:C12:1,2016-05-03T19:05:00Z,27.4980,-83.7220,1010.98,1111122 
COMPS,ioos:station:USF.COMPS:C12:1,2016-05-03T19:35:00Z,27.4980,-83.7220,1010.69,1111122 
COMPS,ioos:station:USF.COMPS:C12:1,2016-05-03T20:05:00Z,27.4980,-83.7220,1010.49,1111122 
COMPS,ioos:station:USF.COMPS:C12:1,2016-05-03T20:35:00Z,27.4980,-83.7220,1010.95,1111122 
COMPS,ioos:station:USF.COMPS:C12:1,2016-05-03T21:05:00Z,27.4980,-83.7220,1010.49,1111122 
COMPS,ioos:station:USF.COMPS:C12:1,2016-05-03T21:35:00Z,27.4980,-83.7220,1009.87,1111122 
COMPS,ioos:station:USF.COMPS:C12:1,2016-05-03T22:05:00Z,27.4980,-83.7220,1010.29,1111122 
COMPS,ioos:station:USF.COMPS:C12:1,2016-05-03T22:35:00Z,27.4980,-83.7220,1010.66,1111122 
COMPS,ioos:station:USF.COMPS:C12:1,2016-05-03T23:05:00Z,27.4980,-83.7220,1010.02,1111122 
COMPS,ioos:station:USF.COMPS:C12:1,2016-05-03T23:35:00Z,27.4980,-83.7220,1009.7,1111122 
COMPS,ioos:station:USF.COMPS:C12:1,2016-05-04T00:05:00Z,27.4980,-83.7220,1009.2,1111122 
COMPS,ioos:station:USF.COMPS:C12:1,2016-05-04T00:35:00Z,27.4980,-83.7220,1008.67,1111122 
COMPS,ioos:station:USF.COMPS:C12:1,2016-05-04T01:05:00Z,27.4980,-83.7220,1008.45,1111122 
COMPS,ioos:station:USF.COMPS:C12:1,2016-05-04T01:35:00Z,27.4980,-83.7220,1009.18,1111122 
COMPS,ioos:station:USF.COMPS:C12:1,2016-05-04T02:05:00Z,27.4980,-83.7220,1009.42,1111122 
COMPS,ioos:station:USF.COMPS:C12:1,2016-05-04T02:35:00Z,27.4980,-83.7220,1009.96,1111122 
COMPS,ioos:station:USF.COMPS:C12:1,2016-05-04T03:05:00Z,27.4980,-83.7220,1010.15,1111122 
COMPS,ioos:station:USF.COMPS:C12:1,2016-05-04T03:35:00Z,27.4980,-83.7220,1010.09,1111122 
COMPS,ioos:station:USF.COMPS:C12:1,2016-05-04T04:05:00Z,27.4980,-83.7220,1009.97,1111122 
COMPS,ioos:station:USF.COMPS:C12:1,2016-05-04T04:35:00Z,27.4980,-83.7220,1009.53,1111122 
COMPS,ioos:station:USF.COMPS:C12:1,2016-05-04T05:05:00Z,27.4980,-83.7220,1009.32,1111122 
COMPS,ioos:station:USF.COMPS:C12:1,2016-05-04T05:35:00Z,27.4980,-83.7220,1009.18,1111122 
COMPS,ioos:station:USF.COMPS:C12:1,2016-05-04T06:05:00Z,27.4980,-83.7220,1009.14,1111122 
COMPS,ioos:station:USF.COMPS:C12:1,2016-05-04T06:35:00Z,27.4980,-83.7220,1008.51,1111122 
COMPS,ioos:station:USF.COMPS:C12:1,2016-05-04T07:05:00Z,27.4980,-83.7220,1008.3,1111122 
COMPS,ioos:station:USF.COMPS:C12:1,2016-05-04T07:35:00Z,27.4980,-83.7220,1007.87,1111122 
COMPS,ioos:station:USF.COMPS:C12:1,2016-05-04T08:05:00Z,27.4980,-83.7220,1007.0,1111122 
COMPS,ioos:station:USF.COMPS:C12:1,2016-05-04T08:35:00Z,27.4980,-83.7220,1006.97,1111122 
COMPS,ioos:station:USF.COMPS:C12:1,2016-05-04T09:05:00Z,27.4980,-83.7220,1006.67,1111122 
COMPS,ioos:station:USF.COMPS:C12:1,2016-05-04T09:35:00Z,27.4980,-83.7220,1006.5,1111122 
COMPS,ioos:station:USF.COMPS:C12:1,2016-05-04T10:05:00Z,27.4980,-83.7220,1006.15,1111122 
COMPS,ioos:station:USF.COMPS:C12:1,2016-05-04T10:35:00Z,27.4980,-83.7220,1006.33,1111122 
COMPS,ioos:station:USF.COMPS:C12:1,2016-05-04T11:05:00Z,27.4980,-83.7220,1006.25,1111122 
COMPS,ioos:station:USF.COMPS:C12:1,2016-05-04T11:35:00Z,27.4980,-83.7220,1006.23,1111122 
COMPS,ioos:station:USF.COMPS:C12:1,2016-05-04T12:05:00Z,27.4980,-83.7220,1007.26,1111122 
COMPS,ioos:station:USF.COMPS:C12:1,2016-05-04T12:35:00Z,27.4980,-83.7220,1007.9,1111122 
COMPS,ioos:station:USF.COMPS:C12:1,2016-05-04T13:05:00Z,27.4980,-83.7220,1007.27,1111122 
COMPS,ioos:station:USF.COMPS:C12:1,2016-05-04T13:35:00Z,27.4980,-83.7220,1007.47,1111122 
COMPS,ioos:station:USF.COMPS:C12:1,2016-05-04T14:05:00Z,27.4980,-83.7220,1007.69,1111122 
COMPS,ioos:station:USF.COMPS:C12:1,2016-05-04T14:35:00Z,27.4980,-83.7220,1007.86,1111122 
COMPS,ioos:station:USF.COMPS:C12:1,2016-05-04T15:05:00Z,27.4980,-83.7220,1008.0,1111122 
COMPS,ioos:station:USF.COMPS:C12:1,2016-05-04T15:35:00Z,27.4980,-83.7220,1008.71,1111122 
COMPS,ioos:station:USF.COMPS:C12:1,2016-05-04T16:05:00Z,27.4980,-83.7220,1007.45,1111122 
COMPS,ioos:station:USF.COMPS:C12:1,2016-05-04T16:35:00Z,27.4980,-83.7220,1007.37,1111122 
COMPS,ioos:station:USF.COMPS:C12:1,2016-05-04T17:05:00Z,27.4980,-83.7220,1006.2,1111122 
COMPS,ioos:station:USF.COMPS:C12:1,2016-05-04T17:35:00Z,27.4980,-83.7220,1006.08,1111122 
COMPS,ioos:station:USF.COMPS:C12:1,2016-05-04T18:05:00Z,27.4980,-83.7220,1005.65,1111122 
COMPS,ioos:station:USF.COMPS:C12:1,2016-05-04T18:35:00Z,27.4980,-83.7220,1005.15,1111122 
COMPS,ioos:station:USF.COMPS:C12:1,2016-05-04T19:05:00Z,27.4980,-83.7220,1004.56,1111122 
COMPS,ioos:station:USF.COMPS:C12:1,2016-05-04T19:35:00Z,27.4980,-83.7220,1003.93,1111122 
COMPS,ioos:station:USF.COMPS:C12:1,2016-05-04T20:05:00Z,27.4980,-83.7220,1003.32,1111122 
COMPS,ioos:station:USF.COMPS:C12:1,2016-05-04T20:35:00Z,27.4980,-83.7220,1003.44,1111122 
COMPS,ioos:station:USF.COMPS:C12:1,2016-05-04T21:05:00Z,27.4980,-83.7220,1003.58,1111122 
COMPS,ioos:station:USF.COMPS:C12:1,2016-05-04T21:35:00Z,27.4980,-83.7220,1003.61,1111122 
COMPS,ioos:station:USF.COMPS:C12:1,2016-05-04T22:05:00Z,27.4980,-83.7220,1003.76,1111122 
COMPS,ioos:station:USF.COMPS:C12:1,2016-05-04T22:35:00Z,27.4980,-83.7220,1004.28,1111122 
COMPS,ioos:station:USF.COMPS:C12:1,2016-05-04T23:05:00Z,27.4980,-83.7220,1004.38,1111122 
COMPS,ioos:station:USF.COMPS:C12:1,2016-05-04T23:35:00Z,27.4980,-83.7220,1004.53,1111122 
COMPS,ioos:station:USF.COMPS:C12:1,2016-05-05T00:05:00Z,27.4980,-83.7220,1004.73,1111122 
COMPS,ioos:station:USF.COMPS:C12:1,2016-05-05T00:35:00Z,27.4980,-83.7220,1004.76,1111122 
COMPS,ioos:station:USF.COMPS:C12:1,2016-05-05T01:05:00Z,27.4980,-83.7220,1005.04,1111122 
COMPS,ioos:station:USF.COMPS:C12:1,2016-05-05T01:35:00Z,27.4980,-83.7220,1005.34,1111122 
COMPS,ioos:station:USF.COMPS:C12:1,2016-05-05T02:05:00Z,27.4980,-83.7220,1005.51,1111122 
COMPS,ioos:station:USF.COMPS:C12:1,2016-05-05T02:35:00Z,27.4980,-83.7220,1006.06,1111122 
COMPS,ioos:station:USF.COMPS:C12:1,2016-05-05T03:05:00Z,27.4980,-83.7220,1006.59,1111122 
COMPS,ioos:station:USF.COMPS:C12:1,2016-05-05T03:35:00Z,27.4980,-83.7220,1006.8,1111122 
COMPS,ioos:station:USF.COMPS:C12:1,2016-05-05T04:05:00Z,27.4980,-83.7220,1007.02,1111122 
COMPS,ioos:station:USF.COMPS:C12:1,2016-05-05T04:35:00Z,27.4980,-83.7220,1007.05,1111122 
COMPS,ioos:station:USF.COMPS:C12:1,2016-05-05T05:05:00Z,27.4980,-83.7220,1007.13,1111122 
COMPS,ioos:station:USF.COMPS:C12:1,2016-05-05T05:35:00Z,27.4980,-83.7220,1007.01,1111122 
COMPS,ioos:station:USF.COMPS:C12:1,2016-05-05T06:05:00Z,27.4980,-83.7220,1006.98,1111122 
COMPS,ioos:station:USF.COMPS:C12:1,2016-05-05T06:35:00Z,27.4980,-83.7220,1006.63,1111122 
COMPS,ioos:station:USF.COMPS:C12:1,2016-05-05T07:05:00Z,27.4980,-83.7220,1006.45,1111122 
COMPS,ioos:station:USF.COMPS:C12:1,2016-05-05T07:35:00Z,27.4980,-83.7220,1006.25,1111122 
COMPS,ioos:station:USF.COMPS:C12:1,2016-05-05T08:05:00Z,27.4980,-83.7220,1006.08,1111122 
COMPS,ioos:station:USF.COMPS:C12:1,2016-05-05T08:35:00Z,27.4980,-83.7220,1006.6,1111122 
COMPS,ioos:station:USF.COMPS:C12:1,2016-05-05T09:05:00Z,27.4980,-83.7220,1006.28,1111122 
COMPS,ioos:station:USF.COMPS:C12:1,2016-05-05T09:35:00Z,27.4980,-83.7220,1006.62,1111122 
COMPS,ioos:station:USF.COMPS:C12:1,2016-05-05T10:05:00Z,27.4980,-83.7220,1006.88,1111122 
COMPS,ioos:station:USF.COMPS:C12:1,2016-05-05T10:35:00Z,27.4980,-83.7220,1006.96,1111122 
COMPS,ioos:station:USF.COMPS:C12:1,2016-05-05T11:05:00Z,27.4980,-83.7220,1007.07,1111122 
COMPS,ioos:station:USF.COMPS:C12:1,2016-05-05T11:35:00Z,27.4980,-83.7220,1007.85,1111122 
COMPS,ioos:station:USF.COMPS:C12:1,2016-05-05T12:05:00Z,27.4980,-83.7220,1008.32,1111122 
COMPS,ioos:station:USF.COMPS:C12:1,2016-05-05T12:35:00Z,27.4980,-83.7220,1008.72,1111122 
COMPS,ioos:station:USF.COMPS:C12:1,2016-05-05T13:05:00Z,27.4980,-83.7220,1008.93,1111122 
COMPS,ioos:station:USF.COMPS:C12:1,2016-05-05T13:35:00Z,27.4980,-83.7220,1009.15,1111122 
COMPS,ioos:station:USF.COMPS:C12:1,2016-05-05T14:05:00Z,27.4980,-83.7220,1009.11,1111122 
COMPS,ioos:station:USF.COMPS:C12:1,2016-05-05T14:35:00Z,27.4980,-83.7220,1009.1,1111122 
COMPS,ioos:station:USF.COMPS:C12:1,2016-05-05T15:05:00Z,27.4980,-83.7220,1009.27,1111122 
COMPS,ioos:station:USF.COMPS:C12:1,2016-05-05T15:35:00Z,27.4980,-83.7220,1009.21,1111122 
COMPS,ioos:station:USF.COMPS:C12:1,2016-05-05T16:05:00Z,27.4980,-83.7220,1008.95,1111122 
COMPS,ioos:station:USF.COMPS:C12:1,2016-05-05T16:35:00Z,27.4980,-83.7220,1008.79,1111122 
COMPS,ioos:station:USF.COMPS:C12:1,2016-05-05T17:05:00Z,27.4980,-83.7220,1008.67,1111122 
COMPS,ioos:station:USF.COMPS:C12:1,2016-05-05T17:35:00Z,27.4980,-83.7220,1008.34,1111122 
COMPS,ioos:station:USF.COMPS:C12:1,2016-05-05T18:05:00Z,27.4980,-83.7220,1008.08,1111122 
COMPS,ioos:station:USF.COMPS:C12:1,2016-05-05T18:35:00Z,27.4980,-83.7220,1007.95,1111122 
COMPS,ioos:station:USF.COMPS:C12:1,2016-05-05T19:05:00Z,27.4980,-83.7220,1007.54,1111122 
COMPS,ioos:station:USF.COMPS:C12:1,2016-05-05T19:35:00Z,27.4980,-83.7220,1007.33,1111122 
COMPS,ioos:station:USF.COMPS:C12:1,2016-05-05T20:05:00Z,27.4980,-83.7220,1007.08,1111122 
COMPS,ioos:station:USF.COMPS:C12:1,2016-05-05T20:35:00Z,27.4980,-83.7220,1006.91,1111122 
COMPS,ioos:station:USF.COMPS:C12:1,2016-05-05T21:05:00Z,27.4980,-83.7220,1006.88,1111122 
COMPS,ioos:station:USF.COMPS:C12:1,2016-05-05T21:35:00Z,27.4980,-83.7220,1006.91,1111122 
COMPS,ioos:station:USF.COMPS:C12:1,2016-05-05T22:05:00Z,27.4980,-83.7220,1006.63,1111122 
COMPS,ioos:station:USF.COMPS:C12:1,2016-05-05T22:35:00Z,27.4980,-83.7220,1006.95,1111122 
COMPS,ioos:station:USF.COMPS:C12:1,2016-05-05T23:05:00Z,27.4980,-83.7220,1007.02,1111122 
COMPS,ioos:station:USF.COMPS:C12:1,2016-05-05T23:35:00Z,27.4980,-83.7220,1007.01,1111122 
COMPS,ioos:station:USF.COMPS:C12:1,2016-05-06T00:05:00Z,27.4980,-83.7220,1006.98,1111122 
COMPS,ioos:station:USF.COMPS:C12:1,2016-05-06T00:35:00Z,27.4980,-83.7220,1007.32,1111122 
COMPS,ioos:station:USF.COMPS:C12:1,2016-05-06T01:05:00Z,27.4980,-83.7220,1007.44,1111122 
COMPS,ioos:station:USF.COMPS:C12:1,2016-05-06T01:35:00Z,27.4980,-83.7220,1007.66,1111122 
COMPS,ioos:station:USF.COMPS:C12:1,2016-05-06T02:05:00Z,27.4980,-83.7220,1007.84,1111122 
COMPS,ioos:station:USF.COMPS:C12:1,2016-05-06T02:35:00Z,27.4980,-83.7220,1008.23,1111122 
COMPS,ioos:station:USF.COMPS:C12:1,2016-05-06T03:05:00Z,27.4980,-83.7220,1008.36,1111122 
COMPS,ioos:station:USF.COMPS:C12:1,2016-05-06T03:35:00Z,27.4980,-83.7220,1008.69,1111122 
COMPS,ioos:station:USF.COMPS:C12:1,2016-05-06T04:05:00Z,27.4980,-83.7220,1008.83,1111122 
COMPS,ioos:station:USF.COMPS:C12:1,2016-05-06T04:35:00Z,27.4980,-83.7220,1009.23,1111122 
COMPS,ioos:station:USF.COMPS:C12:1,2016-05-06T05:05:00Z,27.4980,-83.7220,1009.02,1111122 
COMPS,ioos:station:USF.COMPS:C12:1,2016-05-06T05:35:00Z,27.4980,-83.7220,1008.93,1111122 
COMPS,ioos:station:USF.COMPS:C12:1,2016-05-06T06:05:00Z,27.4980,-83.7220,1008.83,1111122 
COMPS,ioos:station:USF.COMPS:C12:1,2016-05-06T06:35:00Z,27.4980,-83.7220,1008.77,1111122 
COMPS,ioos:station:USF.COMPS:C12:1,2016-05-06T07:05:00Z,27.4980,-83.7220,1008.77,1111122 
COMPS,ioos:station:USF.COMPS:C12:1,2016-05-06T07:35:00Z,27.4980,-83.7220,1008.78,1111122 
COMPS,ioos:station:USF.COMPS:C12:1,2016-05-06T08:05:00Z,27.4980,-83.7220,1008.66,1111122 
COMPS,ioos:station:USF.COMPS:C12:1,2016-05-06T08:35:00Z,27.4980,-83.7220,1008.63,1111122 
COMPS,ioos:station:USF.COMPS:C12:1,2016-05-06T09:05:00Z,27.4980,-83.7220,1008.75,1111122 
COMPS,ioos:station:USF.COMPS:C12:1,2016-05-06T09:35:00Z,27.4980,-83.7220,1008.78,1111122 
COMPS,ioos:station:USF.COMPS:C12:1,2016-05-06T10:05:00Z,27.4980,-83.7220,1009.13,1111122 
COMPS,ioos:station:USF.COMPS:C12:1,2016-05-06T10:35:00Z,27.4980,-83.7220,1009.39,1111122 
COMPS,ioos:station:USF.COMPS:C12:1,2016-05-06T11:05:00Z,27.4980,-83.7220,1009.78,1111122 
COMPS,ioos:station:USF.COMPS:C12:1,2016-05-06T11:35:00Z,27.4980,-83.7220,1010.0,1111122 
COMPS,ioos:station:USF.COMPS:C12:1,2016-05-06T12:05:00Z,27.4980,-83.7220,1010.19,1111122 
COMPS,ioos:station:USF.COMPS:C12:1,2016-05-06T12:35:00Z,27.4980,-83.7220,1010.68,1111122 